This demonstration page uses our WeatherBlox Daily Observations layout. Learn more.

Hourly Observations for July 11, 2017

Temp ( °F °C ) Dew Point ( °F °C ) Humidity (%) Winds ( mph kmh ) Pressure ( in mb ) Visibility ( mi km ) Precip ( " mm )
12:53 am 00:53 Cloudy 81 27.2 69 20.6 67 67 SSW 9 15 29.91 1013 10 16.0934 0 0
1:53 am 01:53 Partly Cloudy 80 26.7 70 21.1 71 71 SW 12 19 29.91 1013 10 16.0934 0 0
2:53 am 02:53 Partly Cloudy with Nearby Thunderstorms 78 25.6 70 21.1 76 76 W 8 13 29.93 1014 10 16.0934 0 0.0254
3:34 am 03:34 Mostly Cloudy with Light Rain 77 25 70 21.1 79 79 WNW 18 30 29.97 1015 10 16.0934 0 0.0254
3:41 am 03:41 Mostly Cloudy with Nearby Thunderstorms 75 23.9 68 20 79 79 WNW 13 20 29.97 1015 10 16.0934 0 0.0254
3:53 am 03:53 Partly Cloudy with Nearby Thunderstorms 74 23.3 67 19.4 79 79 WSW 8 13 29.94 1014 10 16.0934 0 0.0254
4:00 am 04:00 Partly Cloudy with Light Thunderstorms 73 22.8 68 20 84 84 WSW 10 17 29.97 1015 10 16.0934 0 0.0254
4:34 am 04:34 Partly Cloudy with Light Rain 71 21.7 69 20.6 94 94 Calm 29.91 1013 10 16.0934 0.04 1.016
4:53 am 04:53 Clear 71 21.7 70 21.1 96 96 SW 3 6 29.9 1012 10 16.0934 0.04 1.016
5:53 am 05:53 Clear 72 22.2 71 21.7 97 97 Calm 29.92 1013 10 16.0934 0 0
6:53 am 06:53 Sunny 73 22.8 71 21.7 94 94 VRB 5 7 29.94 1014 9 14.48406 0 0
7:53 am 07:53 Sunny 76 24.4 72 22.2 88 88 Calm 29.93 1014 10 16.0934 0 0
8:53 am 08:53 Sunny 77 25 73 22.8 88 88 SW 6 9 29.95 1014 10 16.0934 0 0
9:53 am 09:53 Partly Cloudy with Light Rain 75 23.9 72 22.2 90 90 WSW 8 13 29.98 1015 10 16.0934 0 0.0254
10:22 am 10:22 Cloudy with Nearby Thunderstorms 74 23.3 73 22.8 97 97 WSW 13 20 30.03 1017 5 8.0467 0.02 0.508
10:32 am 10:32 Cloudy with Nearby Thunderstorms 74 23.3 73 22.8 97 97 WSW 9 15 30 1016 5 8.0467 0.03 0.762
10:42 am 10:42 Mostly Cloudy with Light Thunderstorms 73 22.8 70 21.1 90 90 WSW 9 15 30 1016 10 16.0934 0.03 0.762
10:53 am 10:53 Mostly Cloudy with Nearby Thunderstorms 72 22.2 68 20 87 87 W 13 20 29.99 1016 9 14.48406 0.03 0.762
11:09 am 11:09 Mostly Cloudy with Light Thunderstorms 71 21.7 67 19.4 87 87 WSW 8 13 30 1016 7 11.26538 0.02 0.508
11:22 am 11:22 Mostly Cloudy with Light Rain 70 21.1 68 20 93 93 SSW 9 15 30 1016 5 8.0467 0.04 1.016
11:53 am 11:53 Mostly Cloudy with Light Rain 71 21.7 67 19.4 87 87 WSW 13 20 29.98 1015 8 12.87472 0.09 2.286
12:53 pm 12:53 Sunny 74 23.3 69 20.6 85 85 WSW 7 11 29.98 1015 10 16.0934 0 0.0254
1:53 pm 13:53 Sunny 74 23.3 68 20 82 82 W 8 13 30.01 1016 10 16.0934 0 0
2:50 pm 14:50 Mostly Cloudy with Nearby Thunderstorms 72 22 68 20 88 88 W 13 20 30.06 1018 5 8.0467 0.02 0.508
2:53 pm 14:53 Mostly Cloudy with Nearby Thunderstorms 71 21.7 68 20 90 90 W 15 24 30.06 1018 4 6.43736 0.02 0.508
3:10 pm 15:10 Partly Cloudy with Light Thunderstorms 70 21.1 67 19.4 90 90 W 10 17 30.06 1018 5 8.0467 0.03 0.762
3:36 pm 15:36 Mostly Cloudy with Nearby Thunderstorms 70 21.1 68 20 93 93 WNW 8 13 30.06 1018 4 6.43736 0.07 1.778
3:53 pm 15:53 Cloudy with Nearby Thunderstorms 70 21.1 69 20.6 97 97 SSE 3 6 30.01 1016 3 4.82802 0.11 2.794
4:01 pm 16:01 Cloudy with Rain 70 21.1 69 20.6 97 97 WSW 5 7 30.03 1017 4 6.43736 0.02 0.508
4:53 pm 16:53 Sunny 74 23.3 71 21.7 91 91 SW 9 15 29.97 1015 10 16.0934 0.03 0.762
5:53 pm 17:53 Sunny 77 25 70 21.1 79 79 WSW 5 7 29.94 1014 10 16.0934 0 0
6:53 pm 18:53 Sunny 79 26.1 71 21.7 77 77 Calm 29.97 1015 10 16.0934 0 0
7:53 pm 19:53 Sunny 78 25.6 73 22.8 85 85 SSW 3 6 29.98 1015 9 14.48406 0 0
8:53 pm 20:53 Partly Cloudy 76 24.4 73 22.8 91 91 Calm 29.99 1016 7 11.26538 0 0
9:29 pm 21:29 Mostly Cloudy with Mist and Fog 73 22.8 73 22.8 100 100 Calm 30 1016 6 9.65604 0 0
9:37 pm 21:37 Partly Cloudy with Mist and Fog 73 22.8 73 22.8 100 100 Calm 30 1016 6 9.65604 0 0
9:53 pm 21:53 Mostly Clear with Mist and Fog 72 22.2 72 22.2 100 100 Calm 30 1016 6 9.65604 0 0
10:20 pm 22:20 Mostly Clear with Mist and Fog 72 22.2 72 22.2 100 100 Calm 30.03 1017 1.75 2.816345 0 0
10:28 pm 22:28 Partly Cloudy with Mist and Fog 72 22.2 72 22.2 100 100 Calm 30.03 1017 3 4.82802 0 0
10:35 pm 22:35 Mostly Cloudy with Mist and Fog 73 22.8 72 22.2 96 96 Calm 30.03 1017 5 8.0467 0 0
10:53 pm 22:53 Cloudy with Mist and Fog 73 22.8 73 22.8 100 100 Calm 30.03 1017 5 8.0467 0 0
11:15 pm 23:15 Partly Cloudy with Mist and Fog 73 22.8 73 22.8 100 100 Calm 30.06 1018 6 9.65604 0 0
11:53 pm 23:53 Clear with Mist and Fog 73 22.8 73 22.8 100 100 Calm 30.03 1017 4 6.43736 0 0

Powered by AerisWeather